QTR77 OETF-OEDF

Flight info

Callsign QTR77
Flight time 1h 17m
Altitude 37000
Route ITLUN2B ITLUN DCT PUSDI DCT KUTOL DCT LAKMI DCT RGB DCT UMASU DCT DURMA DCT KIA N687 KINIB DCT MIBRA MIBRA2L
Aircraft A332/H-SDE3GHIJ2J3J5M1RVWXY/LB2D1

Departure

Time 2026-05-06 12:26
Airport Taif International Airport (OETF)

Arrival

Time 2026-05-06 13:44
Airport King Fahd International Airport (OEDF)
Time Latitude Longitude Altitude Speed Heading
2026-05-06 12:26 21.60962 40.55197 10164 ft 298 kts 55°
2026-05-06 12:26 21.62088 40.57082 11077 ft 302 kts 62°
2026-05-06 12:27 21.63120 40.59056 11937 ft 314 kts 63°
2026-05-06 12:27 21.64225 40.61186 12377 ft 338 kts 63°
2026-05-06 12:27 21.65413 40.63446 12990 ft 354 kts 62°
2026-05-06 12:27 21.66652 40.65779 13800 ft 364 kts 62°
2026-05-06 12:28 21.67930 40.68158 14590 ft 371 kts 59°
2026-05-06 12:28 21.69635 40.70272 15376 ft 379 kts 38°
2026-05-06 12:28 21.71992 40.71561 16204 ft 384 kts 14°
2026-05-06 12:28 21.74649 40.71898 17012 ft 387 kts 358°
2026-05-06 12:29 21.77359 40.72017 17809 ft 394 kts
2026-05-06 12:29 21.80022 40.72833 18581 ft 403 kts 21°
2026-05-06 12:29 21.82578 40.74117 19280 ft 408 kts 26°
2026-05-06 12:29 21.85115 40.75522 20010 ft 412 kts 26°
2026-05-06 12:30 21.87662 40.76965 20759 ft 415 kts 26°
2026-05-06 12:30 21.90194 40.78410 21448 ft 419 kts 26°
2026-05-06 12:30 21.92785 40.79890 22140 ft 424 kts 26°
2026-05-06 12:30 21.95403 40.81388 22841 ft 428 kts 26°
2026-05-06 12:31 21.98046 40.82901 23522 ft 432 kts 26°
2026-05-06 12:31 22.00720 40.84433 24058 ft 438 kts 26°
2026-05-06 12:31 22.03429 40.85985 24547 ft 443 kts 26°
2026-05-06 12:31 22.06167 40.87555 25049 ft 448 kts 26°
2026-05-06 12:32 22.08938 40.89144 25541 ft 453 kts 25°
2026-05-06 12:32 22.11699 40.90729 26016 ft 458 kts 25°
2026-05-06 12:32 22.14520 40.92348 26505 ft 462 kts 25°
2026-05-06 12:32 22.17372 40.93987 26978 ft 466 kts 25°
2026-05-06 12:33 22.20249 40.95640 27421 ft 471 kts 25°
2026-05-06 12:33 22.23164 40.97316 27836 ft 477 kts 25°
2026-05-06 12:33 22.26105 40.99008 28300 ft 481 kts 25°
2026-05-06 12:33 22.29072 41.00715 28754 ft 485 kts 25°
2026-05-06 12:34 22.32066 41.02439 29193 ft 490 kts 25°
2026-05-06 12:34 22.35083 41.04177 29614 ft 494 kts 25°
2026-05-06 12:34 22.38131 41.05934 30056 ft 498 kts 25°
2026-05-06 12:34 22.41208 41.07709 30411 ft 503 kts 25°
2026-05-06 12:35 22.44309 41.09501 30718 ft 508 kts 25°
2026-05-06 12:35 22.47322 41.11559 31107 ft 515 kts 34°
2026-05-06 12:35 22.49977 41.14190 31489 ft 521 kts 47°
2026-05-06 12:35 22.52153 41.17258 32071 ft 520 kts 53°
2026-05-06 12:36 22.54201 41.20477 32598 ft 520 kts 56°
2026-05-06 12:36 22.56182 41.23759 33102 ft 520 kts 57°
2026-05-06 12:36 22.58132 41.27063 33599 ft 520 kts 57°
2026-05-06 12:36 22.60079 41.30375 34034 ft 523 kts 57°
2026-05-06 12:37 22.62041 41.33696 34433 ft 523 kts 56°
2026-05-06 12:37 22.64010 41.37007 34919 ft 521 kts 56°
2026-05-06 12:37 22.65977 41.40297 35465 ft 518 kts 56°
2026-05-06 12:37 22.67936 41.43563 35911 ft 517 kts 56°
2026-05-06 12:38 22.69895 41.46823 36348 ft 516 kts 56°
2026-05-06 12:38 22.71833 41.50047 36754 ft 516 kts 56°
2026-05-06 12:38 22.73794 41.53312 37027 ft 517 kts 56°
2026-05-06 12:38 22.75739 41.56552 37057 ft 507 kts 56°
2026-05-06 12:39 22.79570 41.62944 37076 ft 513 kts 56°
2026-05-06 12:39 22.83534 41.69563 37073 ft 532 kts 56°
2026-05-06 12:40 22.87611 41.76382 37069 ft 551 kts 56°
2026-05-06 12:40 22.91806 41.83413 37071 ft 555 kts 56°
2026-05-06 12:41 22.95696 41.90667 37068 ft 556 kts 68°
2026-05-06 12:41 22.98622 41.98377 37064 ft 556 kts 69°
2026-05-06 12:42 23.01449 42.06194 37061 ft 555 kts 70°
2026-05-06 12:42 23.04233 42.14016 37064 ft 555 kts 70°
2026-05-06 12:43 23.07004 42.21805 37050 ft 556 kts 70°
2026-05-06 12:43 23.09790 42.29618 37055 ft 554 kts 70°
2026-05-06 12:44 23.12580 42.37426 37053 ft 553 kts 69°
2026-05-06 12:44 23.15435 42.45205 37050 ft 553 kts 69°
2026-05-06 12:45 23.18312 42.52970 37051 ft 554 kts 69°
2026-05-06 12:46 23.22594 42.64579 37046 ft 554 kts 69°
2026-05-06 12:46 23.25447 42.72350 37045 ft 553 kts 69°
2026-05-06 12:47 23.28290 42.80113 37040 ft 553 kts 69°
2026-05-06 12:47 23.31145 42.87921 37040 ft 554 kts 69°
2026-05-06 12:48 23.33992 42.95721 37038 ft 555 kts 69°
2026-05-06 12:48 23.36837 43.03529 37033 ft 555 kts 69°
2026-05-06 12:49 23.39678 43.11339 37034 ft 554 kts 69°
2026-05-06 12:49 23.42492 43.19086 37026 ft 554 kts 69°
2026-05-06 12:50 23.45324 43.26896 37032 ft 553 kts 69°
2026-05-06 12:50 23.48146 43.34691 37023 ft 553 kts 69°
2026-05-06 12:51 23.50965 43.42492 37018 ft 553 kts 69°
2026-05-06 12:51 23.53765 43.50253 37017 ft 553 kts 69°
2026-05-06 12:52 23.56579 43.58070 37005 ft 554 kts 69°
2026-05-06 12:52 23.59394 43.65902 36999 ft 554 kts 69°
2026-05-06 12:53 23.62200 43.73725 36989 ft 554 kts 69°
2026-05-06 12:53 23.65004 43.81555 36996 ft 554 kts 69°
2026-05-06 12:54 23.67792 43.89353 36982 ft 554 kts 69°
2026-05-06 12:54 23.70592 43.97199 36973 ft 554 kts 70°
2026-05-06 12:55 23.73385 44.05043 36966 ft 554 kts 70°
2026-05-06 12:55 23.75705 44.11569 36966 ft 553 kts 70°
2026-05-06 12:56 23.78942 44.20691 36971 ft 555 kts 70°
2026-05-06 12:56 23.81278 44.27285 36976 ft 555 kts 70°
2026-05-06 12:57 23.84041 44.35097 36974 ft 554 kts 70°
2026-05-06 12:57 23.86819 44.42967 36972 ft 554 kts 70°
2026-05-06 12:58 23.89560 44.50750 36983 ft 554 kts 70°
2026-05-06 12:58 23.92356 44.58641 36985 ft 555 kts 67°
2026-05-06 12:59 23.95663 44.66262 36990 ft 554 kts 64°
2026-05-06 12:59 23.99060 44.73809 36985 ft 553 kts 64°
2026-05-06 13:00 24.02483 44.81346 36985 ft 555 kts 64°
2026-05-06 13:00 24.05914 44.88931 36985 ft 556 kts 64°
2026-05-06 13:01 24.09333 44.96523 36991 ft 556 kts 64°
2026-05-06 13:01 24.12743 45.04117 36984 ft 555 kts 64°
2026-05-06 13:02 24.16121 45.11652 36985 ft 554 kts 64°
2026-05-06 13:02 24.19526 45.19237 36962 ft 554 kts 64°
2026-05-06 13:03 24.22925 45.26817 36974 ft 554 kts 64°
2026-05-06 13:03 24.26333 45.34417 36971 ft 555 kts 64°
2026-05-06 13:04 24.29716 45.41973 36968 ft 555 kts 64°
2026-05-06 13:04 24.33115 45.49582 36966 ft 555 kts 64°
2026-05-06 13:05 24.36503 45.57182 36967 ft 554 kts 64°
2026-05-06 13:05 24.39886 45.64783 36966 ft 554 kts 64°
2026-05-06 13:06 24.43266 45.72389 36963 ft 554 kts 64°
2026-05-06 13:06 24.47013 45.79719 36972 ft 553 kts 58°
2026-05-06 13:07 24.51157 45.86902 36974 ft 553 kts 57°
2026-05-06 13:07 24.55314 45.93948 36977 ft 553 kts 56°
2026-05-06 13:08 24.59510 46.01041 36976 ft 553 kts 57°
2026-05-06 13:08 24.63692 46.08132 36983 ft 552 kts 57°
2026-05-06 13:09 24.67866 46.15231 36985 ft 552 kts 57°
2026-05-06 13:09 24.72013 46.22298 36997 ft 553 kts 57°
2026-05-06 13:10 24.76207 46.29456 36998 ft 553 kts 57°
2026-05-06 13:10 24.80349 46.36534 36998 ft 553 kts 57°
2026-05-06 13:11 24.84513 46.43662 36993 ft 553 kts 57°
2026-05-06 13:11 24.88669 46.50786 36994 ft 552 kts 57°
2026-05-06 13:12 24.92824 46.57918 36996 ft 552 kts 57°
2026-05-06 13:12 24.96096 46.63543 36991 ft 554 kts 57°
2026-05-06 13:13 24.99709 46.71057 36991 ft 556 kts 65°
2026-05-06 13:13 25.02993 46.78717 36992 ft 556 kts 65°
2026-05-06 13:14 25.06235 46.86474 36993 ft 556 kts 66°
2026-05-06 13:14 25.09466 46.94259 36988 ft 556 kts 66°
2026-05-06 13:15 25.12668 47.01980 36989 ft 556 kts 66°
2026-05-06 13:15 25.15888 47.09746 36982 ft 556 kts 66°
2026-05-06 13:16 25.19105 47.17514 36981 ft 556 kts 66°
2026-05-06 13:16 25.22319 47.25289 36973 ft 556 kts 66°
2026-05-06 13:17 25.25510 47.33024 36964 ft 542 kts 66°
2026-05-06 13:17 25.27050 47.36758 36969 ft 526 kts 66°
2026-05-06 13:17 25.28545 47.40389 36955 ft 511 kts 66°
2026-05-06 13:17 25.29997 47.43919 36966 ft 500 kts 66°
2026-05-06 13:18 25.31429 47.47403 36961 ft 497 kts 66°
2026-05-06 13:18 25.34267 47.54320 36965 ft 497 kts 66°
2026-05-06 13:19 25.37119 47.61282 36957 ft 497 kts 66°
2026-05-06 13:19 25.39996 47.68316 36725 ft 511 kts 66°
2026-05-06 13:19 25.41468 47.71920 36470 ft 515 kts 66°
2026-05-06 13:20 25.42941 47.75531 36233 ft 515 kts 66°
2026-05-06 13:20 25.44416 47.79149 36003 ft 516 kts 66°
2026-05-06 13:20 25.45892 47.82775 35752 ft 516 kts 66°
2026-05-06 13:20 25.47346 47.86350 35511 ft 516 kts 66°
2026-05-06 13:21 25.48818 47.89971 35272 ft 517 kts 66°
2026-05-06 13:21 25.50293 47.93603 35037 ft 517 kts 66°
2026-05-06 13:21 25.51767 47.97238 34798 ft 517 kts 66°
2026-05-06 13:21 25.53243 48.00876 34563 ft 517 kts 66°
2026-05-06 13:22 25.54717 48.04512 34363 ft 518 kts 66°
2026-05-06 13:22 25.56193 48.08152 34125 ft 519 kts 66°
2026-05-06 13:22 25.57673 48.11807 33884 ft 519 kts 66°
2026-05-06 13:22 25.59150 48.15458 33632 ft 520 kts 66°
2026-05-06 13:23 25.60627 48.19113 33377 ft 519 kts 66°
2026-05-06 13:23 25.62086 48.22725 33127 ft 519 kts 66°
2026-05-06 13:23 25.63559 48.26376 32872 ft 519 kts 66°
2026-05-06 13:23 25.65035 48.30038 32631 ft 519 kts 66°
2026-05-06 13:24 25.66504 48.33685 32372 ft 518 kts 66°
2026-05-06 13:24 25.67978 48.37330 32122 ft 518 kts 65°
2026-05-06 13:24 25.69777 48.40784 31883 ft 517 kts 57°
2026-05-06 13:24 25.71664 48.44173 31648 ft 516 kts 57°
2026-05-06 13:25 25.73578 48.47542 31400 ft 516 kts 57°
2026-05-06 13:25 25.75497 48.50901 31160 ft 515 kts 57°
2026-05-06 13:25 25.77417 48.54258 30928 ft 514 kts 57°
2026-05-06 13:25 25.79327 48.57600 30473 ft 511 kts 57°
2026-05-06 13:26 25.81227 48.60928 29817 ft 508 kts 57°
2026-05-06 13:26 25.83092 48.64194 29032 ft 507 kts 57°
2026-05-06 13:26 25.84971 48.67489 28311 ft 503 kts 57°
2026-05-06 13:26 25.86835 48.70760 27623 ft 499 kts 57°
2026-05-06 13:27 25.88685 48.74007 26898 ft 495 kts 57°
2026-05-06 13:27 25.90522 48.77234 26210 ft 491 kts 57°
2026-05-06 13:27 25.92334 48.80422 25679 ft 484 kts 57°
2026-05-06 13:27 25.94143 48.83560 25011 ft 479 kts 54°
2026-05-06 13:28 25.96282 48.86352 24490 ft 469 kts 44°
2026-05-06 13:28 25.98624 48.88852 23879 ft 464 kts 41°
2026-05-06 13:28 26.00950 48.91247 23303 ft 458 kts 41°
2026-05-06 13:28 26.03276 48.93642 22613 ft 453 kts 41°
2026-05-06 13:29 26.05569 48.96011 21934 ft 448 kts 41°
2026-05-06 13:29 26.07832 48.98358 21267 ft 442 kts 41°
2026-05-06 13:29 26.10067 49.00682 20634 ft 437 kts 41°
2026-05-06 13:29 26.12277 49.02983 19975 ft 432 kts 41°
2026-05-06 13:30 26.14463 49.05262 19336 ft 427 kts 41°
2026-05-06 13:30 26.16617 49.07509 18709 ft 422 kts 41°
2026-05-06 13:30 26.18752 49.09738 18074 ft 417 kts 41°
2026-05-06 13:30 26.20855 49.11936 17361 ft 412 kts 41°
2026-05-06 13:31 26.22914 49.14088 16651 ft 408 kts 42°
2026-05-06 13:31 26.24970 49.16238 16072 ft 401 kts 42°
2026-05-06 13:31 26.26989 49.18351 15473 ft 395 kts 42°
2026-05-06 13:31 26.28977 49.20433 14915 ft 388 kts 42°
2026-05-06 13:32 26.30931 49.22480 14348 ft 383 kts 43°
2026-05-06 13:32 26.32861 49.24502 13795 ft 377 kts 43°
2026-05-06 13:32 26.34735 49.26467 13277 ft 371 kts 43°
2026-05-06 13:32 26.36590 49.28411 12878 ft 362 kts 43°
2026-05-06 13:33 26.38421 49.30329 12462 ft 361 kts 43°
2026-05-06 13:33 26.40245 49.32241 12122 ft 357 kts 43°
2026-05-06 13:33 26.42053 49.34137 11798 ft 357 kts 43°
2026-05-06 13:33 26.43863 49.36035 11465 ft 355 kts 43°
2026-05-06 13:34 26.45658 49.37918 11138 ft 352 kts 43°
2026-05-06 13:34 26.47421 49.39770 10898 ft 341 kts 43°
2026-05-06 13:34 26.49117 49.41552 10651 ft 328 kts 43°
2026-05-06 13:34 26.50755 49.43274 10349 ft 319 kts 43°
2026-05-06 13:35 26.52345 49.44947 10091 ft 309 kts 44°
2026-05-06 13:35 26.53877 49.46562 9762 ft 304 kts 44°
2026-05-06 13:35 26.55413 49.48182 9263 ft 304 kts 44°
2026-05-06 13:35 26.56966 49.49820 8641 ft 310 kts 44°
2026-05-06 13:36 26.58536 49.51478 8171 ft 310 kts 44°
2026-05-06 13:36 26.60090 49.53119 7737 ft 306 kts 44°
2026-05-06 13:36 26.61651 49.54766 7170 ft 311 kts 44°
2026-05-06 13:36 26.63229 49.56441 6606 ft 314 kts 45°
2026-05-06 13:37 26.64647 49.58218 6359 ft 305 kts 52°
2026-05-06 13:37 26.65889 49.60078 6188 ft 293 kts 57°
2026-05-06 13:37 26.67010 49.61925 6032 ft 281 kts 58°
2026-05-06 13:37 26.68060 49.63722 5926 ft 270 kts 59°
2026-05-06 13:38 26.69062 49.65442 5675 ft 261 kts 59°
2026-05-06 13:38 26.70030 49.67144 5365 ft 254 kts 65°
2026-05-06 13:38 26.70342 49.68949 5205 ft 232 kts 103°
2026-05-06 13:38 26.69711 49.70484 5042 ft 210 kts 133°
2026-05-06 13:39 26.68675 49.71589 4698 ft 206 kts 150°
2026-05-06 13:39 26.67408 49.72322 4247 ft 206 kts 164°
2026-05-06 13:39 26.66026 49.72785 3797 ft 209 kts 169°
2026-05-06 13:39 26.64608 49.73211 3353 ft 212 kts 167°
2026-05-06 13:40 26.63201 49.73646 2866 ft 208 kts 165°
2026-05-06 13:40 26.61821 49.74081 2511 ft 202 kts 163°
2026-05-06 13:40 26.60500 49.74497 2279 ft 193 kts 162°
2026-05-06 13:40 26.59233 49.74892 2035 ft 185 kts 163°
2026-05-06 13:41 26.58017 49.75270 1797 ft 177 kts 162°
2026-05-06 13:41 26.56856 49.75632 1603 ft 167 kts 161°
2026-05-06 13:41 26.55775 49.75971 1378 ft 158 kts 161°
2026-05-06 13:41 26.54743 49.76293 1195 ft 154 kts 161°
2026-05-06 13:42 26.53724 49.76610 993 ft 150 kts 161°
2026-05-06 13:42 26.52734 49.76919 828 ft 146 kts 162°
2026-05-06 13:42 26.51765 49.77221 660 ft 144 kts 162°
2026-05-06 13:42 26.50794 49.77524 477 ft 145 kts 162°
2026-05-06 13:43 26.49823 49.77827 294 ft 144 kts 161°
2026-05-06 13:43 26.49186 49.78031 143 ft 142 kts 161°
2026-05-06 13:43 26.48290 49.78325 67 ft 109 kts 164°
2026-05-06 13:43 26.47789 49.78474 85 ft 56 kts 164°
2026-05-06 13:44 26.47305 49.78615 86 ft 54 kts 165°
2026-05-06 13:44 26.46947 49.78725 86 ft 53 kts 163°
2026-05-06 13:44 26.46735 49.78798 83 ft 34 kts 159°
2026-05-06 13:44 26.46575 49.78921 86 ft 26 kts 135°
2026-05-06 13:45 26.47992 49.78990 84 ft 0 kts 74°